User: anonymous   Login
Location: Platte
(43.3870°N, 98.8440°W)
Time: 16:41:50
(UTC-06:00)
Language:

Landsat 7 - Orbit

View from above orbital plane
View from above orbital plane
View from above satellite
View from above satellite

Ground track
Ground track

The orbit data is extracted from the following two-line orbital elements,

1 25682U 99020A   15032.30763713  .00000515  00000-0  12429-3 0   335
2 25682 098.2111 103.9332 0001084 083.5297 276.6025 14.57104744840350
Epoch (UTC): 01 February 2015 07:22:59
Eccentricity: 0.0001084
inclination: 98.2111°
perigee height: 702 km
apogee height: 703 km
right ascension of ascending node: 103.9332°
argument of perigee: 83.5297°
revolutions per day: 14.57104744
mean anomaly at epoch: 276.6025°
orbit number at epoch: 84035

The dashed part of the orbit path shows where the satellite is in the earth's shadow,  

DLR